Regional Weather Roundup
Issued by NWS Newport/Morehead, NC

Current Version | Previous Version | Graphics & Text | Print | Product List | Glossary Off
Versions: 1 2 3 4 5 6 7 8 9 10 11 12 13 14 15 16 17 18 19 20 21 22 23 24 25 26 27 28 29 30 31 32 33 34 35 36 37 38 39 40 41 42 43 44 45 46 47 48 49 50

000
ASUS42 KMHX 241225
RWRMHX
WEATHER ROUNDUP FOR EASTERN NORTH CAROLINA
NATIONAL WEATHER SERVICE NEWPORT/MOREHEAD CITY NC
700 AM EST TUE JAN 24 2017

NOTE: "FAIR" INDICATES FEW OR NO CLOUDS BELOW 12,000 FEET
WITH NO SIGNIFICANT WEATHER AND/OR OBSTRUCTIONS TO VISIBILITY

NCZ015>017-031-032-045>047-102-103-241300-
NORTH COAST

CITY           SKY/WX    TMP DP  RH WIND       PRES   REMARKS
EDENTON        CLOUDY    42  38  83 NW15      29.51R
ELIZABETH CITY CLOUDY    40  38  93 NW16G23   29.47S
KITTY HAWK     NOT AVBL
MANTEO         CLOUDY    42  38  88 NW13G22   29.46R

$$

NCZ045>047-081-094-103-104-241300-
CENTRAL COAST

CITY           SKY/WX    TMP DP  RH WIND       PRES   REMARKS
FRISCO         CLOUDY    45  40  82 NW14G25     N/A

$$

NCZ095-097-098-100-101-241300-
SOUTHERN COAST

CITY           SKY/WX    TMP DP  RH WIND       PRES   REMARKS
BEAUFORT       CLOUDY    45  39  79 NW22      29.52R
CEDAR ISLAND   NOT AVBL
JACKSONVILLE   CLOUDY    44  39  82 NW14      29.56R
PINEY ISLAND   CLOUDY   N/A N/A N/A W16G28    29.51R
WILMINGTON     MOCLDY    44  40  85 NW10      29.58R


$$

NCZ011>013-027>030-043-044-078>080-089-090>093-098-241300-
COASTAL PLAIN

CITY           SKY/WX    TMP DP  RH WIND       PRES   REMARKS
AHOSKIE          N/A     37  35  92 CALM      29.53R
CLINTON        CLOUDY    44  40  88 W3        29.59R
ELIZABETHTOWN  CLOUDY    44  40  85 W3        29.59R
GOLDSBORO      CLEAR     42  40  93 W7        29.55R
GREENVILLE     CLOUDY    41  36  81 NW7       29.59R
HAVELOCK       MOCLDY    43  37  79 NW17      29.54R
KENANSVILLE    MOCLDY    43  37  81 CALM      29.57R
KINSTON        CLOUDY    43  37  81 NW6       29.56R
NEW BERN       CLOUDY    43  36  76 NW12G18   29.55R
RICHLANDS      CLOUDY    43  39  86 W5        29.57R
ROCKY MOUNT    CLEAR     40  37  89 W5        29.55R
WASHINGTON     MOCLDY    41  35  80 NW8         N/A
WHITEVILLE     PTCLDY    44  40  87 W3        29.59R

$$

AMZ130-135-150-152-154-156-158-170-250-252-270-ANZ085-086-088-633-658-670-241300-
MARINE OBSERVATIONS

STATION/POSITION TIME  TEMP    WIND        PRES    WAVE   SWELL
                       AIR SEA DIR/SP/G            HT/PER HT/PER
                 (UTC) (F)     (DEG/KT/KT) (MB)    (FT/S) (FT/S)
CHESAPEAKE LIGHT NOT AVBL
64 E VA BEACH    1150   44 51  310/ 25/ 29  994.0   12/13  10/13
DUCK             1200   42 46  310/ 21/ 23  996.5
2 E DUCK         1200      46                N/A     8/12   5/12
OREGON INLET     1200   42 50  290/ 18/ 23  997.0
13E OREGON INLT  NOT AVBL
HATTERAS CG      1200   45 56  310/ 24/ 28  997.4
DIAMOND BUOY     1150   47 74  320/ 23/ 29  996.8   10/11   8/11
CAPE LOOKOUT     1200   45     300/ 20/ 25  999.0
BEAUFORT LAB     1200   44 52  320/  9/ 18  998.6
30 SE NEW RVR IN 1208   48 67  320/ 23/ 31 1000.1
30 SE NEW RVR IN 1143      66                N/A     8/11   3/11
27 SE WRIGHTSVLE 1208   50 68  290/ 19/ 27  999.2
5 SE WRIGHTSVLE  1208   47 56  300/ 17/ 25 1001.3
225 S CAPE HAT   1150   67 71  300/ 25/ 31  998.2   14/10   7/11
41 SE CHARLESTON 1150   58 69  290/ 19/ 25 1002.4    7/ 8   5/ 8

$$




USA.gov is the U.S. government's official web portal to all federal, state and local government web resources and services.